Flag for Poland Weather past 2 weeks in Koszalin, Poland

Now
49 °F

Fog.


Feels Like: 49 °F
Forecast: 55 / 72 °F
Wind: No wind

Location: Koszalin

Current Time: Sep 3, 2014 at 6:14:27 AM

Latest Report: Sep 3, 2014 at 5:00 AM


Visibility: 9 mi

Pressure: 30.34 "Hg

Humidity: 93%

Dew point: 47 °F

Location of KoszalinLocation

Historic Weather in Koszalin — Graph

°F

Koszalin temperature yesterday

Maximum temperature yesterday: 66 °F (at 2:00 PM)
Minimum temperature yesterday: 50 °F (at 3:00 AM)
Average temperature yesterday: 59 °F

Past Weeks' High & Low Weather Summary

 TemperatureHumidityPressure
High73 °F (Aug 29, 4:00 PM)94% (Aug 27, 6:00 AM)30.34 "Hg (Aug 27, 6:00 AM)
Low45 °F (Aug 26, 6:00 AM)33% (Aug 29, 3:00 PM)29.65 "Hg (Aug 19, 4:00 AM)
Average58 °F74%29.93 "Hg
* Reported Aug 19 4:00 AM — Sep 3 4:00 AM, Koszalin, Weather by CustomWeather, © 2014

Note: Actual official high and low records may vary slightly from our data, if they occured in-between our weather recording intervals... More about our weather records

Advertising

Koszalin weather history for previous 24 hours

 ConditionsComfort  
Time TempWeatherWind HumidityBarometerVisibility
4:00 AM
Sep 3
51 °FClear.1 mph93%30.34 "Hg14 mi
3:00 AM50 °FClear.1 mph92%30.34 "Hg7 mi
2:00 AM51 °FClear.1 mph90%30.34 "Hg14 mi
1:00 AM52 °FClear.1 mph90%30.33 "Hg19 mi
12:00 AM54 °FPassing clouds.1 mph87%30.32 "Hg19 mi
11:00 PM
Sep 2
56 °FPassing clouds.2 mph84%30.32 "Hg31 mi
10:00 PM56 °FPassing clouds.2 mph83%30.30 "Hg31 mi
9:00 PM57 °FPassing clouds.2 mph80%30.29 "Hg31 mi
8:00 PM59 °FPassing clouds.2 mph73%30.27 "Hg28 mi
7:00 PM62 °FPartly sunny.3 mph66%30.25 "Hg28 mi
6:00 PM63 °FPartly sunny.3 mph67%30.24 "Hg25 mi
5:00 PM65 °FPartly sunny.3 mph63%30.23 "Hg28 mi
4:00 PM65 °FPartly sunny.3 mph63%30.22 "Hg28 mi
3:00 PM65 °FOvercast.3 mph63%30.22 "Hg22 mi
2:00 PM66 °FOvercast.3 mph49%30.22 "Hg22 mi
1:00 PM65 °FOvercast.3 mph54%30.22 "Hg28 mi
12:00 PM65 °FPartly sunny.3 mph54%30.22 "Hg19 mi
11:00 AM63 °FScattered clouds.3 mph59%30.22 "Hg25 mi
10:00 AM61 °FScattered clouds.2 mph66%30.21 "Hg25 mi
9:00 AM59 °FPartly sunny.2 mph69%30.19 "Hg25 mi
8:00 AM58 °FOvercast.2 mph70%30.18 "Hg22 mi
7:00 AM56 °FOvercast.1 mph77%30.17 "Hg28 mi
6:00 AM52 °FOvercast.1 mph91%30.16 "Hg12 mi
Weather by CustomWeather, © 2014

See weather overviewHow to use our weather pages